Zurück zum Katalog

MARISAT 1

AktivKommunikationGEO
NORAD 8697·PAYLOAD·🇺🇸 United States

Gestartet Feb 19, 1976 von Cape Canaveral Space Force Station

Loading…

TLE

AktuellSource: Space-Track

Epoche: Sep 14, 2026, 05:24 UTC

1 08697U 76017A   26257.22559075  .00000025  00000-0  00000-0 0  9995
2 08697   5.6214 294.4447 0011794 210.6813 323.8802  0.99206353182988

Verfolge MARISAT 1 in Echtzeit mit AllMySat

Download on the App Store